Regional Weather Roundup
Issued by NWS Charleston, WV

Home | Current Version | Previous Version | Graphics & Text | Print | Product List | Glossary On
Versions: 1 2 3 4 5 6 7 8 9 10 11 12 13 14 15 16 17 18 19 20 21 22 23 24 25 26 27 28 29 30 31 32 33 34 35 36 37 38 39 40 41 42 43 44 45 46 47 48 49 50
000
ASUS41 KRLX 192110
RWRRLX
West Virginia Regional Weather Roundup
National Weather Service Charleston WV
500 PM EDT SUN OCT 19 2014

Note: "fair" indicates few or no clouds below 12,000 feet with no
significant weather and/or obstructions to visibility.

WVZ003-192200-
Northern Panhandle of West Virginia

CITY           SKY/WX    TMP DP  RH WIND       PRES   REMARKS
WHEELING       MOSUNNY   53  32  44 W13       30.11F
$$

WVZ009-192200-
Northwest West Virginia

CITY           SKY/WX    TMP DP  RH WIND       PRES   REMARKS
PARKERSBURG    SUNNY     57  34  41 VRB3      30.16F
$$

WVZ006-192200-
Western West Virginia

CITY           SKY/WX    TMP DP  RH WIND       PRES   REMARKS
HUNTINGTON     MOSUNNY   58  38  47 SW5       30.14F
$$

WVZ015-192200-
West Central West Virginia

CITY           SKY/WX    TMP DP  RH WIND       PRES   REMARKS
CHARLESTON     MOSUNNY   57  35  43 W3        30.15F
$$

WVZ022-031-192200-
North Central West Virginia

CITY           SKY/WX    TMP DP  RH WIND       PRES   REMARKS
CLARKSBURG     SUNNY     54  33  45 W9        30.13F
MORGANTOWN     SUNNY     57  29  34 W6        30.13S
$$

WVZ025-035-042-045-192200-
Southern West Virginia

CITY           SKY/WX    TMP DP  RH WIND       PRES   REMARKS
BECKLEY        MOSUNNY   52  34  50 N9        30.14S
LOGAN            N/A     55  37  50 W5        30.14F
BLUEFIELD      SUNNY     55  34  45 NW7       30.13F
LEWISBURG      SUNNY     55  32  41 W9        30.12S
$$

WVZ047-192200-
Northern Mountains of West Virginia

CITY           SKY/WX    TMP DP  RH WIND       PRES   REMARKS
ELKINS         SUNNY     51  34  52 W10       30.14S
$$

WVZ052-192200-
Eastern Panhandle of West Virginia

CITY           SKY/WX    TMP DP  RH WIND       PRES   REMARKS
MARTINSBURG    SUNNY     57  29  34 NW16      30.06S
PETERSBURG     SUNNY    N/A N/A N/A NW5       30.10S
$$


USA.gov is the U.S. government's official web portal to all federal, state and local government web resources and services.